lat,lon,time
34,-118.80832,2018-06-08 04:04:26
34.00027,-118.80869,2018-06-08 04:09:24
33.99777,-118.80769,2018-06-08 04:14:33
33.99682,-118.80534,2018-06-08 04:19:24
33.99719,-118.80195,2018-06-08 04:24:18
33.99783,-118.79929,2018-06-08 04:29:18
33.99657,-118.79681,2018-06-08 04:34:17
33.99597,-118.79391,2018-06-08 04:39:12
33.99505,-118.79143,2018-06-08 04:44:14
33.99443,-118.78864,2018-06-08 04:49:36
33.99345,-118.78662,2018-06-08 04:54:08
33.99266,-118.78459,2018-06-08 04:59:06
33.99158,-118.78198,2018-06-08 05:04:05
33.99055,-118.78018,2018-06-08 05:09:05
33.98935,-118.77802,2018-06-08 05:14:05
33.98815,-118.77588,2018-06-08 05:19:04
33.98696,-118.77394,2018-06-08 05:24:04
33.98583,-118.77188,2018-06-08 05:29:04
33.98525,-118.77007,2018-06-08 05:34:05
33.98374,-118.76712,2018-06-08 05:40:29
33.98306,-118.76575,2018-06-08 05:44:03
33.98191,-118.76379,2018-06-08 05:48:59
33.98088,-118.76187,2018-06-08 05:53:59
33.97977,-118.75984,2018-06-08 05:58:58
33.97847,-118.75775,2018-06-08 06:05:02
33.97729,-118.75645,2018-06-08 06:08:54
33.97578,-118.75481,2018-06-08 06:13:52
33.97446,-118.75282,2018-06-08 06:18:50
33.97332,-118.7511,2018-06-08 06:23:48
33.97197,-118.74936,2018-06-08 06:28:45
33.97109,-118.74768,2018-06-08 06:33:43
33.96984,-118.74589,2018-06-08 06:38:38
33.9686,-118.74409,2018-06-08 06:43:38
33.96725,-118.74199,2018-06-08 06:48:36
33.966,-118.74014,2018-06-08 06:53:35
33.96469,-118.73805,2018-06-08 06:58:33
33.96365,-118.73627,2018-06-08 07:03:56
33.96262,-118.73438,2018-06-08 07:08:30
33.96159,-118.73241,2018-06-08 07:13:29
33.96043,-118.73039,2018-06-08 07:18:27
33.95955,-118.72826,2018-06-08 07:23:25
33.95853,-118.7258,2018-06-08 07:28:24
33.9576,-118.72366,2018-06-08 07:33:23
33.95652,-118.72148,2018-06-08 07:38:18
33.95651,-118.72044,2018-06-08 07:43:20
33.95549,-118.71716,2018-06-08 07:48:15
33.9546,-118.71495,2018-06-08 07:53:16
33.95344,-118.71258,2018-06-08 07:58:36
33.95237,-118.71043,2018-06-08 08:03:36
33.9511,-118.70866,2018-06-08 08:08:11
33.94977,-118.70691,2018-06-08 08:13:09
33.94846,-118.70499,2018-06-08 08:18:05
33.94717,-118.70326,2018-06-08 08:23:05
33.94569,-118.70155,2018-06-08 08:28:02
33.94468,-118.7002,2018-06-08 08:33:02
33.94324,-118.69836,2018-06-08 08:38:00
33.942,-118.69624,2018-06-08 08:42:59
33.94086,-118.69427,2018-06-08 08:47:57
33.93962,-118.69217,2018-06-08 08:52:56
33.93832,-118.69017,2018-06-08 08:57:54
33.93705,-118.68825,2018-06-08 09:03:27
33.93593,-118.68672,2018-06-08 09:07:49
33.93447,-118.68498,2018-06-08 09:12:46
33.93315,-118.68344,2018-06-08 09:17:44
33.93191,-118.68176,2018-06-08 09:22:41
33.93053,-118.68014,2018-06-08 09:27:40
33.92941,-118.67877,2018-06-08 09:32:40
33.92816,-118.67726,2018-06-08 09:37:38
33.92652,-118.67567,2018-06-08 09:42:35
33.92507,-118.67415,2018-06-08 09:47:35
33.92364,-118.67252,2018-06-08 09:52:40
33.92229,-118.67101,2018-06-08 09:57:35
33.92136,-118.66962,2018-06-08 10:02:57
33.92004,-118.66814,2018-06-08 10:07:32
33.91877,-118.6667,2018-06-08 10:12:30
33.91738,-118.66533,2018-06-08 10:17:26
33.91603,-118.66423,2018-06-08 10:22:26
33.91474,-118.66292,2018-06-08 10:27:24
33.91365,-118.661,2018-06-08 10:32:24
33.91207,-118.65984,2018-06-08 10:37:24
33.91049,-118.65858,2018-06-08 10:42:22
33.90893,-118.65773,2018-06-08 10:47:24
33.90751,-118.65735,2018-06-08 10:52:24
33.90575,-118.65655,2018-06-08 10:57:58
33.90451,-118.65578,2018-06-08 11:02:58
33.90345,-118.65504,2018-06-08 11:07:23
33.9018,-118.65425,2018-06-08 11:12:19
33.90036,-118.65286,2018-06-08 11:17:16
33.89943,-118.6523,2018-06-08 11:22:36
33.89798,-118.65074,2018-06-08 11:27:16
33.8969,-118.64864,2018-06-08 11:32:14
33.89571,-118.64648,2018-06-08 11:37:19
33.89515,-118.64511,2018-06-08 11:42:19
33.89397,-118.64294,2018-06-08 11:47:05
33.89311,-118.6405,2018-06-08 11:52:04
33.89216,-118.63829,2018-06-08 11:57:14
33.89108,-118.63612,2018-06-08 12:02:49
33.89034,-118.6346,2018-06-08 12:07:03
33.88922,-118.63242,2018-06-08 12:12:02
33.88828,-118.63042,2018-06-08 12:17:02
33.88738,-118.62848,2018-06-08 12:22:01
33.88644,-118.62636,2018-06-08 12:26:57
33.88547,-118.62434,2018-06-08 12:31:54
33.8849,-118.62341,2018-06-08 12:36:57
33.88408,-118.62135,2018-06-08 12:41:52
33.88316,-118.61932,2018-06-08 12:46:48
33.88244,-118.61726,2018-06-08 12:51:47
33.88158,-118.61557,2018-06-08 12:56:47
33.8804,-118.61308,2018-06-08 13:02:09
33.87992,-118.61188,2018-06-08 13:06:46
33.87913,-118.61009,2018-06-08 13:11:47
33.87794,-118.60782,2018-06-08 13:16:48
33.87691,-118.6055,2018-06-08 13:21:50
33.87592,-118.60327,2018-06-08 13:26:50
33.87477,-118.60141,2018-06-08 13:32:33
33.87347,-118.59993,2018-06-08 13:36:50
33.87254,-118.59793,2018-06-08 13:41:47
33.87159,-118.59567,2018-06-08 13:46:55
33.87053,-118.59351,2018-06-08 13:51:46
33.86961,-118.59143,2018-06-08 13:56:50
33.86825,-118.58881,2018-06-08 14:02:07
33.86714,-118.58676,2018-06-08 14:06:45
33.86598,-118.58463,2018-06-08 14:11:44
33.86501,-118.58337,2018-06-08 14:16:42
33.86363,-118.5815,2018-06-08 14:21:41
33.86227,-118.57954,2018-06-08 14:26:40
33.86094,-118.57755,2018-06-08 14:31:38
33.85965,-118.5755,2018-06-08 14:36:39
33.85853,-118.57361,2018-06-08 14:41:38
33.85748,-118.57184,2018-06-08 14:46:31
33.85666,-118.57036,2018-06-08 14:51:31
33.85598,-118.56891,2018-06-08 14:56:30
33.85461,-118.56645,2018-06-08 15:01:58
33.85379,-118.56526,2018-06-08 15:06:27
33.85249,-118.56329,2018-06-08 15:11:26
33.85165,-118.56183,2018-06-08 15:16:22
33.85067,-118.56053,2018-06-08 15:21:24
33.84932,-118.55844,2018-06-08 15:26:21
33.84816,-118.55653,2018-06-08 15:31:22
33.84706,-118.55469,2018-06-08 15:36:21
33.8456,-118.55289,2018-06-08 15:41:20
33.84463,-118.55135,2018-06-08 15:46:18
33.84311,-118.54919,2018-06-08 15:51:17
33.84164,-118.54733,2018-06-08 15:56:16
33.84026,-118.54538,2018-06-08 16:01:41
33.83893,-118.54362,2018-06-08 16:06:12
33.8376,-118.54189,2018-06-08 16:11:11
33.83653,-118.54054,2018-06-08 16:16:09
33.83534,-118.539,2018-06-08 16:21:07
33.83378,-118.537,2018-06-08 16:26:05
33.83229,-118.53525,2018-06-08 16:31:03
33.831,-118.53371,2018-06-08 16:35:59
33.82962,-118.53198,2018-06-08 16:40:59
33.82844,-118.53081,2018-06-08 16:45:56
33.82728,-118.52921,2018-06-08 16:50:56
33.82624,-118.52779,2018-06-08 16:56:28
33.82495,-118.52573,2018-06-08 17:01:28
33.82391,-118.52405,2018-06-08 17:05:51
33.82261,-118.52209,2018-06-08 17:10:53
33.82181,-118.52063,2018-06-08 17:15:54
33.82095,-118.519,2018-06-08 17:20:46
33.82009,-118.51685,2018-06-08 17:25:46
33.81889,-118.5146,2018-06-08 17:30:47
33.81784,-118.5128,2018-06-08 17:35:46
33.81671,-118.51085,2018-06-08 17:40:44
33.81603,-118.50905,2018-06-08 17:45:42
33.81491,-118.50725,2018-06-08 17:50:42
33.81376,-118.50539,2018-06-08 17:55:43
33.81248,-118.50307,2018-06-08 18:01:01
33.81176,-118.50166,2018-06-08 18:05:39
33.81084,-118.49945,2018-06-08 18:10:36
33.80958,-118.49718,2018-06-08 18:15:37
33.80874,-118.4953,2018-06-08 18:20:33
33.80812,-118.49361,2018-06-08 18:25:33
33.80722,-118.49156,2018-06-08 18:30:35
33.80611,-118.48926,2018-06-08 18:35:37
33.80503,-118.48724,2018-06-08 18:40:36
33.804,-118.48518,2018-06-08 18:45:36
33.80333,-118.48337,2018-06-08 18:50:35
33.80225,-118.48138,2018-06-08 18:55:43
33.80083,-118.47893,2018-06-08 19:01:09
33.79995,-118.4771,2018-06-08 19:05:26
33.79901,-118.47504,2018-06-08 19:10:26
33.79765,-118.47272,2018-06-08 19:15:25
33.79659,-118.47094,2018-06-08 19:20:20
33.79586,-118.46931,2018-06-08 19:25:20
33.79447,-118.46722,2018-06-08 19:30:18
33.79332,-118.46519,2018-06-08 19:35:15
33.79205,-118.46313,2018-06-08 19:40:16
33.79063,-118.46103,2018-06-08 19:45:10
33.78956,-118.45901,2018-06-08 19:50:08
33.78813,-118.45671,2018-06-08 19:55:05
33.78713,-118.45464,2018-06-08 20:00:29
33.78671,-118.45305,2018-06-08 20:05:04
33.78549,-118.45081,2018-06-08 20:10:03
33.78453,-118.44853,2018-06-08 20:15:03
33.78308,-118.44646,2018-06-08 20:20:00
33.78182,-118.44449,2018-06-08 20:25:01
33.78021,-118.4424,2018-06-08 20:30:00
33.77902,-118.4406,2018-06-08 20:35:00
33.77749,-118.43852,2018-06-08 20:40:10
33.77574,-118.43642,2018-06-08 20:44:58
33.77343,-118.43451,2018-06-08 20:50:09
33.7743,-118.43285,2018-06-08 20:55:02
33.77383,-118.43137,2018-06-08 21:00:55
33.77409,-118.43018,2018-06-08 21:04:59
33.77402,-118.43007,2018-06-08 21:09:56
33.77407,-118.43007,2018-06-08 21:15:04
